Meridian — EI6085 — position and weather

sailwx.info

Track history (hours):
 
Tides and Currents Weather Stations Pressure Air Temp Water Temp Dewpoint Dewpoint Depression Visibility Wind Speed Wind Dir Waves Ship Positions

Meridian

Last reported at 2014-Oct-17 12:04 UTC. Time now 2014-Oct-21 20:00 UTC.
Position N 54°38' W 008°27'.

Length 12 m.

Type: Fishing. MMSI: 250107450.

Date/timePositionNaut miles runAvg speedWind from/ knotsBaromVisibWave heightAir tempDewpointWater temp
2014-Oct-17 12:04N 54°38' W 008°27'4 6.8
2014-Oct-17 11:32N 54°36' W 008°32'3 3.1
2014-Oct-17 10:32N 54°36' W 008°37'6 5.5
2014-Oct-17 09:30N 54°31' W 008°31'4 4.1
2014-Oct-17 08:29N 54°35' W 008°33'4 0.3
2014-Oct-16 16:30N 54°37' W 008°26'9 1.6
2014-Oct-16 10:32N 54°37' W 008°43'8 8.5
2014-Oct-16 09:32N 54°36' W 008°28'2 0.1
2014-Oct-15 15:16N 54°38' W 008°27'0 0.0
2014-Oct-15 13:17N 54°38' W 008°27'0 0.0
2014-Oct-15 11:31N 54°38' W 008°27'0 0.0
2014-Oct-15 10:31N 54°38' W 008°27'1 0.0
2014-Oct-14 16:33N 54°37' W 008°26'2 1.8
2014-Oct-14 15:30N 54°36' W 008°29'6 5.8
2014-Oct-14 14:33N 54°37' W 008°39'2 0.6
2014-Oct-14 11:29N 54°37' W 008°42'9 9.1
2014-Oct-14 10:31N 54°37' W 008°27'1 0.6
2014-Oct-14 09:33N 54°37' W 008°26'1 1.2
2014-Oct-14 08:26N 54°38' W 008°27'0 0.0
2014-Oct-13 18:30N 54°38' W 008°27'10 9.6
2014-Oct-13 17:30N 54°36' W 008°43'1 0.1
2014-Oct-13 10:32N 54°36' W 008°45'9 8.5
2014-Oct-13 09:28N 54°36' W 008°29'3 2.7
2014-Oct-13 08:29N 54°38' W 008°27'0 0.0
2014-Oct-13 07:29N 54°38' W 008°27'0 0.0
2014-Oct-13 06:29N 54°38' W 008°27'0 0.0
2014-Oct-13 05:32N 54°38' W 008°27'0 0.0
2014-Oct-13 04:32N 54°38' W 008°27'0 0.0
2014-Oct-13 03:32N 54°38' W 008°27'0 0.0
2014-Oct-13 02:32N 54°38' W 008°27'0 0.0
2014-Oct-13 01:32N 54°38' W 008°27'0 0.0
2014-Oct-13 00:20N 54°38' W 008°27'0 0.0
2014-Oct-12 23:23N 54°38' W 008°27'0 0.0
2014-Oct-12 22:26N 54°38' W 008°27'0 0.0
2014-Oct-12 21:26N 54°38' W 008°27'0 0.0
2014-Oct-12 20:29N 54°38' W 008°27'0 0.0
2014-Oct-12 19:29N 54°38' W 008°27'0 0.0
2014-Oct-12 18:26N 54°38' W 008°27'0 0.0
2014-Oct-12 17:32N 54°38' W 008°27'0 0.0
2014-Oct-12 16:32N 54°38' W 008°27'7 6.4
2014-Oct-12 15:30N 54°33' W 008°33'8 7.9
2014-Oct-12 14:33N 54°28' W 008°43'0 0.3
2014-Oct-12 13:33N 54°28' W 008°43'0 0.1
2014-Oct-12 12:32N 54°28' W 008°43'1 0.7
2014-Oct-12 11:28N 54°27' W 008°42'2 2.4
2014-Oct-12 10:33N 54°29' W 008°39'8 8.0
2014-Oct-12 09:31N 54°34' W 008°28'3 3.1
2014-Oct-12 08:34N 54°37' W 008°27'1 0.0
2014-Oct-11 15:33N 54°38' W 008°26'7 6.9
2014-Oct-11 14:33N 54°32' W 008°33'6 5.5
2014-Oct-11 13:32N 54°28' W 008°40'0 0.1
2014-Oct-11 12:33N 54°28' W 008°39'0 0.1
2014-Oct-11 11:14N 54°28' W 008°40'7 9.8
2014-Oct-11 10:33N 54°33' W 008°32'2 2.4
2014-Oct-11 09:33N 54°35' W 008°29'2 1.9
2014-Oct-11 08:21N 54°36' W 008°27'2 0.1
2014-Oct-10 14:22N 54°38' W 008°27'0 0.0
2014-Oct-10 13:28N 54°38' W 008°27'0 0.0
2014-Oct-10 12:29N 54°38' W 008°27'0 0.0
2014-Oct-10 11:31N 54°38' W 008°27'0 0.0
2014-Oct-10 10:28N 54°38' W 008°27'0 0.0
2014-Oct-10 09:28N 54°38' W 008°27'0 0.0
2014-Oct-09 17:23N 54°38' W 008°27'7 8.5
2014-Oct-09 16:32N 54°33' W 008°36'5 4.9
2014-Oct-09 15:30N 54°36' W 008°44'2 0.3
2014-Oct-09 10:24N 54°37' W 008°44'7 8.0
2014-Oct-09 09:33N 54°35' W 008°33'5 4.6
2014-Oct-09 08:32N 54°38' W 008°27'0 0.0
2014-Oct-08 15:31N 54°38' W 008°26'8 7.3
2014-Oct-08 14:29N 54°36' W 008°39'3 0.8
2014-Oct-08 10:08N 54°37' W 008°44'5 9.3
2014-Oct-08 09:33N 54°35' W 008°36'  
Track history (hours):
 
Tides and Currents Weather Stations Pressure Air Temp Water Temp Dewpoint Dewpoint Depression Visibility Wind Speed Wind Dir Waves Ship Positions

Meridian

Last reported at 2014-Oct-17 12:04 UTC. Time now 2014-Oct-21 20:00 UTC.
Position N 54°38' W 008°27'.

Length 12 m.

Type: Fishing. MMSI: 250107450.

Date/timePositionNaut miles runAvg speedWind from/ knotsBaromVisibWave heightAir tempDewpointWater temp
2014-Oct-17 12:04N 54°38' W 008°27'4 6.8
2014-Oct-17 11:32N 54°36' W 008°32'3 3.1
2014-Oct-17 10:32N 54°36' W 008°37'6 5.5
2014-Oct-17 09:30N 54°31' W 008°31'4 4.1
2014-Oct-17 08:29N 54°35' W 008°33'4 0.3
2014-Oct-16 16:30N 54°37' W 008°26'9 1.6
2014-Oct-16 10:32N 54°37' W 008°43'8 8.5
2014-Oct-16 09:32N 54°36' W 008°28'2 0.1
2014-Oct-15 15:16N 54°38' W 008°27'0 0.0
2014-Oct-15 13:17N 54°38' W 008°27'0 0.0
2014-Oct-15 11:31N 54°38' W 008°27'0 0.0
2014-Oct-15 10:31N 54°38' W 008°27'1 0.0
2014-Oct-14 16:33N 54°37' W 008°26'2 1.8
2014-Oct-14 15:30N 54°36' W 008°29'6 5.8
2014-Oct-14 14:33N 54°37' W 008°39'2 0.6
2014-Oct-14 11:29N 54°37' W 008°42'9 9.1
2014-Oct-14 10:31N 54°37' W 008°27'1 0.6
2014-Oct-14 09:33N 54°37' W 008°26'1 1.2
2014-Oct-14 08:26N 54°38' W 008°27'0 0.0
2014-Oct-13 18:30N 54°38' W 008°27'10 9.6
2014-Oct-13 17:30N 54°36' W 008°43'1 0.1
2014-Oct-13 10:32N 54°36' W 008°45'9 8.5
2014-Oct-13 09:28N 54°36' W 008°29'3 2.7
2014-Oct-13 08:29N 54°38' W 008°27'0 0.0
2014-Oct-13 07:29N 54°38' W 008°27'0 0.0
2014-Oct-13 06:29N 54°38' W 008°27'0 0.0
2014-Oct-13 05:32N 54°38' W 008°27'0 0.0
2014-Oct-13 04:32N 54°38' W 008°27'0 0.0
2014-Oct-13 03:32N 54°38' W 008°27'0 0.0
2014-Oct-13 02:32N 54°38' W 008°27'0 0.0
2014-Oct-13 01:32N 54°38' W 008°27'0 0.0
2014-Oct-13 00:20N 54°38' W 008°27'0 0.0
2014-Oct-12 23:23N 54°38' W 008°27'0 0.0
2014-Oct-12 22:26N 54°38' W 008°27'0 0.0
2014-Oct-12 21:26N 54°38' W 008°27'0 0.0
2014-Oct-12 20:29N 54°38' W 008°27'0 0.0
2014-Oct-12 19:29N 54°38' W 008°27'0 0.0
2014-Oct-12 18:26N 54°38' W 008°27'0 0.0
2014-Oct-12 17:32N 54°38' W 008°27'0 0.0
2014-Oct-12 16:32N 54°38' W 008°27'7 6.4
2014-Oct-12 15:30N 54°33' W 008°33'8 7.9
2014-Oct-12 14:33N 54°28' W 008°43'0 0.3
2014-Oct-12 13:33N 54°28' W 008°43'0 0.1
2014-Oct-12 12:32N 54°28' W 008°43'1 0.7
2014-Oct-12 11:28N 54°27' W 008°42'2 2.4
2014-Oct-12 10:33N 54°29' W 008°39'8 8.0
2014-Oct-12 09:31N 54°34' W 008°28'3 3.1
2014-Oct-12 08:34N 54°37' W 008°27'1 0.0
2014-Oct-11 15:33N 54°38' W 008°26'7 6.9
2014-Oct-11 14:33N 54°32' W 008°33'6 5.5
2014-Oct-11 13:32N 54°28' W 008°40'0 0.1
2014-Oct-11 12:33N 54°28' W 008°39'0 0.1
2014-Oct-11 11:14N 54°28' W 008°40'7 9.8
2014-Oct-11 10:33N 54°33' W 008°32'2 2.4
2014-Oct-11 09:33N 54°35' W 008°29'2 1.9
2014-Oct-11 08:21N 54°36' W 008°27'2 0.1
2014-Oct-10 14:22N 54°38' W 008°27'0 0.0
2014-Oct-10 13:28N 54°38' W 008°27'0 0.0
2014-Oct-10 12:29N 54°38' W 008°27'0 0.0
2014-Oct-10 11:31N 54°38' W 008°27'0 0.0
2014-Oct-10 10:28N 54°38' W 008°27'0 0.0
2014-Oct-10 09:28N 54°38' W 008°27'0 0.0
2014-Oct-09 17:23N 54°38' W 008°27'7 8.5
2014-Oct-09 16:32N 54°33' W 008°36'5 4.9
2014-Oct-09 15:30N 54°36' W 008°44'2 0.3
2014-Oct-09 10:24N 54°37' W 008°44'7 8.0
2014-Oct-09 09:33N 54°35' W 008°33'5 4.6
2014-Oct-09 08:32N 54°38' W 008°27'0 0.0
2014-Oct-08 15:31N 54°38' W 008°26'8 7.3
2014-Oct-08 14:29N 54°36' W 008°39'3 0.8
2014-Oct-08 10:08N 54°37' W 008°44'5 9.3
2014-Oct-08 09:33N 54°35' W 008°36'  

Dump ship's entire track history